Simultaneous Nadir Overpasses (SNOs) Predictions

Prediction of SNOs between GOES-16 and NOAA-19 Satellite Orbit:

Table of predicted SNOs for the next 14.0 days since TLE Epoch: 3/20/2021
Index Date Time (GOES-16) GOES-16 Lat,Lon NOAA-19 Lat,Lon Distance(km) Time Diff (sec)
1 03/21/2021 23:55:24 -0.01, -75.19 -0.77, -78.61 389.73 80
2 03/22/2021 23:43:41 -0.01, -75.19 -0.11, -75.74 62.84 80
3 03/23/2021 23:29:16 -0.01, -75.19 0.50, -72.87 264.36 80
4 03/26/2021 11:52:45 0.02, -75.23 0.63, -77.79 292.67 80
5 03/27/2021 11:38:22 0.02, -75.24 -0.08, -74.94 34.87 80
6 03/28/2021 11:26:39 0.02, -75.24 -0.72, -72.07 362.32 80
7 03/30/2021 23:50:17 -0.02, -75.23 -0.41, -77.03 204.65 80
8 03/31/2021 23:35:53 -0.02, -75.24 0.26, -74.17 123.30 80
9 04/01/2021 23:24:10 -0.01, -75.25 0.93, -71.30 451.23 80
